date,time,water_lv
2023-11-01,00:00:00,-
2023-11-01,00:10:00,2.644
2023-11-01,00:20:00,2.643
2023-11-01,00:30:00,2.643
2023-11-01,00:40:00,2.643
2023-11-01,00:50:00,2.644
2023-11-01,01:00:00,2.644
2023-11-01,01:10:00,2.644
2023-11-01,01:20:00,2.644
2023-11-01,01:30:00,2.644
2023-11-01,01:40:00,2.644
2023-11-01,01:50:00,2.646
2023-11-01,02:00:00,2.646
2023-11-01,02:10:00,2.646
2023-11-01,02:20:00,2.646
2023-11-01,02:30:00,2.646
2023-11-01,02:40:00,2.647
2023-11-01,02:50:00,2.648
2023-11-01,03:00:00,2.647
2023-11-01,03:10:00,2.647
2023-11-01,03:20:00,2.648
2023-11-01,03:30:00,2.647
2023-11-01,03:40:00,2.647
2023-11-01,03:50:00,2.647
2023-11-01,04:00:00,2.648
2023-11-01,04:10:00,2.649
2023-11-01,04:20:00,2.648
2023-11-01,04:30:00,2.648
2023-11-01,04:40:00,2.647
2023-11-01,04:50:00,2.648
2023-11-01,05:00:00,2.648
2023-11-01,05:10:00,2.648
2023-11-01,05:20:00,2.648
2023-11-01,05:30:00,2.649
2023-11-01,05:40:00,2.648
2023-11-01,05:50:00,2.648
2023-11-01,06:00:00,2.648
2023-11-01,06:10:00,2.649
2023-11-01,06:20:00,-
2023-11-01,06:30:00,2.648
2023-11-01,06:40:00,2.649
2023-11-01,06:50:00,2.649
2023-11-01,07:00:00,2.649
2023-11-01,07:10:00,2.648
2023-11-01,07:20:00,-
2023-11-01,07:30:00,2.644
2023-11-01,07:40:00,2.644
2023-11-01,07:50:00,2.644
2023-11-01,08:00:00,2.644
2023-11-01,08:10:00,2.643
2023-11-01,08:20:00,2.644
2023-11-01,08:30:00,2.643
2023-11-01,08:40:00,2.643
2023-11-01,08:50:00,2.643
2023-11-01,09:00:00,2.643
2023-11-01,09:10:00,2.643
2023-11-01,09:20:00,2.644
2023-11-01,09:30:00,2.643
2023-11-01,09:40:00,2.643
2023-11-01,09:50:00,2.643
2023-11-01,10:00:00,2.643
2023-11-01,10:10:00,2.642
2023-11-01,10:20:00,2.643
2023-11-01,10:30:00,2.643
2023-11-01,10:40:00,2.643
2023-11-01,10:50:00,2.643
2023-11-01,11:00:00,2.643
2023-11-01,11:10:00,2.643
2023-11-01,11:20:00,2.642
2023-11-01,11:30:00,2.643
2023-11-01,11:40:00,2.642
2023-11-01,11:50:00,2.642
2023-11-01,12:00:00,2.642
2023-11-01,12:10:00,2.642
2023-11-01,12:20:00,-
2023-11-01,12:30:00,2.641
2023-11-01,12:40:00,2.643
2023-11-01,12:50:00,2.643
2023-11-01,13:00:00,-
2023-11-01,13:10:00,2.642
2023-11-01,13:20:00,2.642
2023-11-01,13:30:00,2.642
2023-11-01,13:40:00,2.642
2023-11-01,13:50:00,2.643
2023-11-01,14:00:00,2.643
2023-11-01,14:10:00,2.642
2023-11-01,14:20:00,2.642
2023-11-01,14:30:00,-
2023-11-01,14:40:00,2.64
2023-11-01,14:50:00,2.642
2023-11-01,15:00:00,2.641
2023-11-01,15:10:00,2.641
2023-11-01,15:20:00,2.642
2023-11-01,15:30:00,2.642
2023-11-01,15:40:00,2.641
2023-11-01,15:50:00,2.642
2023-11-01,16:00:00,2.64
2023-11-01,16:10:00,2.64
2023-11-01,16:20:00,2.637
2023-11-01,16:30:00,2.64
2023-11-01,16:40:00,2.639
2023-11-01,16:50:00,2.64
2023-11-01,17:00:00,2.639
2023-11-01,17:10:00,2.64
2023-11-01,17:20:00,2.64
2023-11-01,17:30:00,2.64
2023-11-01,17:40:00,2.64
2023-11-01,17:50:00,2.641
2023-11-01,18:00:00,2.642
2023-11-01,18:10:00,2.642
2023-11-01,18:20:00,2.643
2023-11-01,18:30:00,2.643
2023-11-01,18:40:00,2.643
2023-11-01,18:50:00,2.644
2023-11-01,19:00:00,2.644
2023-11-01,19:10:00,-
2023-11-01,19:20:00,2.643
2023-11-01,19:30:00,2.644
2023-11-01,19:40:00,2.644
2023-11-01,19:50:00,2.644
2023-11-01,20:00:00,2.646
2023-11-01,20:10:00,2.644
2023-11-01,20:20:00,2.644
2023-11-01,20:30:00,2.644
2023-11-01,20:40:00,2.644
2023-11-01,20:50:00,2.644
2023-11-01,21:00:00,-
2023-11-01,21:10:00,2.646
2023-11-01,21:20:00,2.646
2023-11-01,21:30:00,2.644
2023-11-01,21:40:00,2.644
2023-11-01,21:50:00,2.646
2023-11-01,22:00:00,2.644
2023-11-01,22:10:00,2.644
2023-11-01,22:20:00,2.644
2023-11-01,22:30:00,2.646
2023-11-01,22:40:00,2.646
2023-11-01,22:50:00,2.646
2023-11-01,23:00:00,2.646
2023-11-01,23:10:00,2.644
2023-11-01,23:20:00,2.644
2023-11-01,23:30:00,-
2023-11-01,23:40:00,2.643
2023-11-01,23:50:00,2.646
2023-11-02,00:00:00,2.646
2023-11-02,00:10:00,2.647
2023-11-02,00:20:00,2.646
2023-11-02,00:30:00,2.646
2023-11-02,00:40:00,2.646
2023-11-02,00:50:00,2.644
2023-11-02,01:00:00,2.644
2023-11-02,01:10:00,2.646
2023-11-02,01:20:00,-
2023-11-02,01:30:00,2.643
2023-11-02,01:40:00,2.644
2023-11-02,01:50:00,2.644
2023-11-02,02:00:00,2.646
2023-11-02,02:10:00,2.644
2023-11-02,02:20:00,2.644
2023-11-02,02:30:00,2.646
2023-11-02,02:40:00,2.644
2023-11-02,02:50:00,2.644
2023-11-02,03:00:00,2.643
2023-11-02,03:10:00,2.644
2023-11-02,03:20:00,2.644
2023-11-02,03:30:00,2.646
2023-11-02,03:40:00,2.644
2023-11-02,03:50:00,2.646
2023-11-02,04:00:00,2.644
2023-11-02,04:10:00,2.646
2023-11-02,04:20:00,2.646
2023-11-02,04:30:00,2.644
2023-11-02,04:40:00,2.644
2023-11-02,04:50:00,2.644
2023-11-02,05:00:00,2.644
2023-11-02,05:10:00,2.644
2023-11-02,05:20:00,2.644
2023-11-02,05:30:00,2.644
2023-11-02,05:40:00,2.643
2023-11-02,05:50:00,2.644
2023-11-02,06:00:00,2.643
2023-11-02,06:10:00,2.643
2023-11-02,06:20:00,2.643
2023-11-02,06:30:00,2.639
2023-11-02,06:40:00,2.644
2023-11-02,06:50:00,-
2023-11-02,07:00:00,2.642
2023-11-02,07:10:00,2.642
2023-11-02,07:20:00,2.641
2023-11-02,07:30:00,2.641
2023-11-02,07:40:00,2.64
2023-11-02,07:50:00,2.64
2023-11-02,08:00:00,-
2023-11-02,08:10:00,-
2023-11-02,08:20:00,2.635
2023-11-02,08:30:00,2.635
2023-11-02,08:40:00,2.634
2023-11-02,08:50:00,2.634
2023-11-02,09:00:00,2.634
2023-11-02,09:10:00,2.634
2023-11-02,09:20:00,2.633
2023-11-02,09:30:00,2.634
2023-11-02,09:40:00,2.634
2023-11-02,09:50:00,2.634
2023-11-02,10:00:00,2.633
2023-11-02,10:10:00,2.633
2023-11-02,10:20:00,2.632
2023-11-02,10:30:00,2.632
2023-11-02,10:40:00,2.63
2023-11-02,10:50:00,2.63
2023-11-02,11:00:00,2.632
2023-11-02,11:10:00,-
2023-11-02,11:20:00,2.629
2023-11-02,11:30:00,2.629
2023-11-02,11:40:00,2.629
2023-11-02,11:50:00,2.628
2023-11-02,12:00:00,2.627
2023-11-02,12:10:00,2.628
2023-11-02,12:20:00,2.624
2023-11-02,12:30:00,2.624
2023-11-02,12:40:00,2.624
2023-11-02,12:50:00,2.623
2023-11-02,13:00:00,2.623
2023-11-02,13:10:00,2.622
2023-11-02,13:20:00,2.621
2023-11-02,13:30:00,2.62
2023-11-02,13:40:00,3.141
2023-11-02,13:50:00,2.62
2023-11-02,14:00:00,2.619
2023-11-02,14:10:00,2.617
2023-11-02,14:20:00,2.616
2023-11-02,14:30:00,2.616
2023-11-02,14:40:00,2.615
2023-11-02,14:50:00,2.613
2023-11-02,15:00:00,2.613
2023-11-02,15:10:00,2.612
2023-11-02,15:20:00,2.614
2023-11-02,15:30:00,2.612
2023-11-02,15:40:00,2.613
2023-11-02,15:50:00,2.612
2023-11-02,16:00:00,2.612
2023-11-02,16:10:00,2.612
2023-11-02,16:20:00,2.612
2023-11-02,16:30:00,2.612
2023-11-02,16:40:00,2.613
2023-11-02,16:50:00,-
2023-11-02,17:00:00,2.613
2023-11-02,17:10:00,2.613
2023-11-02,17:20:00,2.613
2023-11-02,17:30:00,2.613
2023-11-02,17:40:00,2.613
2023-11-02,17:50:00,2.612
2023-11-02,18:00:00,2.612
2023-11-02,18:10:00,2.612
2023-11-02,18:20:00,2.61
2023-11-02,18:30:00,2.612
2023-11-02,18:40:00,2.612
2023-11-02,18:50:00,2.612
2023-11-02,19:00:00,2.612
2023-11-02,19:10:00,2.612
2023-11-02,19:20:00,2.61
2023-11-02,19:30:00,2.61
2023-11-02,19:40:00,2.61
2023-11-02,19:50:00,2.609
2023-11-02,20:00:00,2.609
2023-11-02,20:10:00,2.609
2023-11-02,20:20:00,2.608
2023-11-02,20:30:00,2.608
2023-11-02,20:40:00,2.608
2023-11-02,20:50:00,2.608
2023-11-02,21:00:00,2.608
2023-11-02,21:10:00,2.608
2023-11-02,21:20:00,2.608
2023-11-02,21:30:00,2.607
2023-11-02,21:40:00,2.607
2023-11-02,21:50:00,2.607
2023-11-02,22:00:00,2.607
2023-11-02,22:10:00,2.605
2023-11-02,22:20:00,2.606
2023-11-02,22:30:00,2.605
2023-11-02,22:40:00,2.605
2023-11-02,22:50:00,2.602
2023-11-02,23:00:00,2.605
2023-11-02,23:10:00,2.602
2023-11-02,23:20:00,2.603
2023-11-02,23:30:00,2.602
2023-11-02,23:40:00,2.602
2023-11-02,23:50:00,2.601
2023-11-03,00:00:00,-
2023-11-03,00:10:00,2.6
2023-11-03,00:20:00,2.601
2023-11-03,00:30:00,2.601
2023-11-03,00:40:00,2.601
2023-11-03,00:50:00,2.6
2023-11-03,01:00:00,2.601
2023-11-03,01:10:00,2.6
2023-11-03,01:20:00,2.601
2023-11-03,01:30:00,2.6
2023-11-03,01:40:00,2.6
2023-11-03,01:50:00,2.599
2023-11-03,02:00:00,2.599
2023-11-03,02:10:00,2.599
2023-11-03,02:20:00,-
2023-11-03,02:30:00,-
2023-11-03,02:40:00,-
2023-11-03,02:50:00,-
2023-11-03,03:00:00,-
2023-11-03,03:10:00,2.599
2023-11-03,03:20:00,2.599
2023-11-03,03:30:00,2.599
2023-11-03,03:40:00,2.599
2023-11-03,03:50:00,2.598
2023-11-03,04:00:00,2.599
2023-11-03,04:10:00,2.598
2023-11-03,04:20:00,-
2023-11-03,04:30:00,-
2023-11-03,04:40:00,2.595
2023-11-03,04:50:00,2.596
2023-11-03,05:00:00,2.598
2023-11-03,05:10:00,-
2023-11-03,05:20:00,-
2023-11-03,05:30:00,2.594
2023-11-03,05:40:00,-
2023-11-03,05:50:00,-
2023-11-03,06:00:00,-
2023-11-03,06:10:00,2.593
2023-11-03,06:20:00,2.595
2023-11-03,06:30:00,-
2023-11-03,06:40:00,2.595
2023-11-03,06:50:00,2.594
2023-11-03,07:00:00,2.593
2023-11-03,07:10:00,2.593
2023-11-03,07:20:00,2.59
2023-11-03,07:30:00,2.59
2023-11-03,07:40:00,2.589
2023-11-03,07:50:00,2.589
2023-11-03,08:00:00,2.587
2023-11-03,08:10:00,2.586
2023-11-03,08:20:00,2.586
2023-11-03,08:30:00,2.585
2023-11-03,08:40:00,2.583
2023-11-03,08:50:00,2.583
2023-11-03,09:00:00,2.582
2023-11-03,09:10:00,-
2023-11-03,09:20:00,2.579
2023-11-03,09:30:00,2.581
2023-11-03,09:40:00,2.579
2023-11-03,09:50:00,2.58
2023-11-03,10:00:00,-
2023-11-03,10:10:00,2.576
2023-11-03,10:20:00,2.576
2023-11-03,10:30:00,2.578
2023-11-03,10:40:00,2.576
2023-11-03,10:50:00,2.575
2023-11-03,11:00:00,2.573
2023-11-03,11:10:00,2.576
2023-11-03,11:20:00,2.575
2023-11-03,11:30:00,2.574
2023-11-03,11:40:00,2.574
2023-11-03,11:50:00,2.574
2023-11-03,12:00:00,2.572
2023-11-03,12:10:00,2.572
2023-11-03,12:20:00,2.572
2023-11-03,12:30:00,2.572
2023-11-03,12:40:00,2.571
2023-11-03,12:50:00,2.571
2023-11-03,13:00:00,2.569
2023-11-03,13:10:00,2.569
2023-11-03,13:20:00,2.569
2023-11-03,13:30:00,2.568
2023-11-03,13:40:00,2.566
2023-11-03,13:50:00,2.565
2023-11-03,14:00:00,-
2023-11-03,14:10:00,2.555
2023-11-03,14:20:00,2.555
2023-11-03,14:30:00,2.553
2023-11-03,14:40:00,2.552
2023-11-03,14:50:00,2.549
2023-11-03,15:00:00,2.547
2023-11-03,15:10:00,2.546
2023-11-03,15:20:00,2.545
2023-11-03,15:30:00,2.542
2023-11-03,15:40:00,2.541
2023-11-03,15:50:00,2.54
2023-11-03,16:00:00,2.538
2023-11-03,16:10:00,2.537
2023-11-03,16:20:00,2.534
2023-11-03,16:30:00,2.534
2023-11-03,16:40:00,2.532
2023-11-03,16:50:00,2.532
2023-11-03,17:00:00,2.531
2023-11-03,17:10:00,2.53
2023-11-03,17:20:00,2.528
2023-11-03,17:30:00,2.528
2023-11-03,17:40:00,2.527
2023-11-03,17:50:00,2.527
2023-11-03,18:00:00,2.526
2023-11-03,18:10:00,2.526
2023-11-03,18:20:00,2.525
2023-11-03,18:30:00,2.524
2023-11-03,18:40:00,-
2023-11-03,18:50:00,2.521
2023-11-03,19:00:00,2.521
2023-11-03,19:10:00,2.521
2023-11-03,19:20:00,-
2023-11-03,19:30:00,2.518
2023-11-03,19:40:00,-
2023-11-03,19:50:00,2.517
2023-11-03,20:00:00,-
2023-11-03,20:10:00,-
2023-11-03,20:20:00,2.514
2023-11-03,20:30:00,2.514
2023-11-03,20:40:00,-
2023-11-03,20:50:00,-
2023-11-03,21:00:00,2.511
2023-11-03,21:10:00,2.512
2023-11-03,21:20:00,-
2023-11-03,21:30:00,-
2023-11-03,21:40:00,2.508
2023-11-03,21:50:00,2.51
2023-11-03,22:00:00,-
2023-11-03,22:10:00,-
2023-11-03,22:20:00,-
2023-11-03,22:30:00,-
2023-11-03,22:40:00,-
2023-11-03,22:50:00,2.506
2023-11-03,23:00:00,-
2023-11-03,23:10:00,-
2023-11-03,23:20:00,-
2023-11-03,23:30:00,2.503
2023-11-03,23:40:00,2.503
2023-11-03,23:50:00,2.501
2023-11-04,00:00:00,2.501
2023-11-04,00:10:00,-
2023-11-04,00:20:00,2.499
2023-11-04,00:30:00,2.499
2023-11-04,00:40:00,-
2023-11-04,00:50:00,2.499
2023-11-04,01:00:00,2.498
2023-11-04,01:10:00,2.497
2023-11-04,01:20:00,-
2023-11-04,01:30:00,-
2023-11-04,01:40:00,2.496
2023-11-04,01:50:00,2.496
2023-11-04,02:00:00,2.496
2023-11-04,02:10:00,2.496
2023-11-04,02:20:00,2.497
2023-11-04,02:30:00,2.496
2023-11-04,02:40:00,2.494
2023-11-04,02:50:00,2.494
2023-11-04,03:00:00,-
2023-11-04,03:10:00,-
2023-11-04,03:20:00,-
2023-11-04,03:30:00,-
2023-11-04,03:40:00,-
2023-11-04,03:50:00,-
2023-11-04,04:00:00,-
2023-11-04,04:10:00,-
2023-11-04,04:20:00,-
2023-11-04,04:30:00,2.491
2023-11-04,04:40:00,-
2023-11-04,04:50:00,-
2023-11-04,05:00:00,-
2023-11-04,05:10:00,2.489
2023-11-04,05:20:00,2.487
2023-11-04,05:30:00,-
2023-11-04,05:40:00,2.486
2023-11-04,05:50:00,2.489
2023-11-04,06:00:00,2.489
2023-11-04,06:10:00,2.487
2023-11-04,06:20:00,2.489
2023-11-04,06:30:00,2.487
2023-11-04,06:40:00,2.487
2023-11-04,06:50:00,2.486
2023-11-04,07:00:00,2.486
2023-11-04,07:10:00,2.485
2023-11-04,07:20:00,-
2023-11-04,07:30:00,2.482
2023-11-04,07:40:00,2.482
2023-11-04,07:50:00,2.482
2023-11-04,08:00:00,2.48
2023-11-04,08:10:00,2.48
2023-11-04,08:20:00,2.479
2023-11-04,08:30:00,2.478
2023-11-04,08:40:00,2.478
2023-11-04,08:50:00,2.477
2023-11-04,09:00:00,2.477
2023-11-04,09:10:00,2.474
2023-11-04,09:20:00,2.474
2023-11-04,09:30:00,2.473
2023-11-04,09:40:00,2.472
2023-11-04,09:50:00,2.472
2023-11-04,10:00:00,2.472
2023-11-04,10:10:00,2.471
2023-11-04,10:20:00,2.47
2023-11-04,10:30:00,2.47
2023-11-04,10:40:00,2.469
2023-11-04,10:50:00,2.469
2023-11-04,11:00:00,2.469
2023-11-04,11:10:00,2.469
2023-11-04,11:20:00,2.469
2023-11-04,11:30:00,2.469
2023-11-04,11:40:00,2.466
2023-11-04,11:50:00,2.467
2023-11-04,12:00:00,2.465
2023-11-04,12:10:00,2.464
2023-11-04,12:20:00,2.465
2023-11-04,12:30:00,2.464
2023-11-04,12:40:00,2.464
2023-11-04,12:50:00,2.463
2023-11-04,13:00:00,2.462
2023-11-04,13:10:00,-
2023-11-04,13:20:00,2.46
2023-11-04,13:30:00,2.459
2023-11-04,13:40:00,2.459
2023-11-04,13:50:00,2.459
2023-11-04,14:00:00,2.459
2023-11-04,14:10:00,2.458
2023-11-04,14:20:00,2.457
2023-11-04,14:30:00,2.457
2023-11-04,14:40:00,2.456
2023-11-04,14:50:00,2.455
2023-11-04,15:00:00,2.453
2023-11-04,15:10:00,2.453
2023-11-04,15:20:00,-
2023-11-04,15:30:00,2.453
2023-11-04,15:40:00,-
2023-11-04,15:50:00,2.457
2023-11-04,16:00:00,2.448
2023-11-04,16:10:00,-
2023-11-04,16:20:00,-
2023-11-04,16:30:00,-
2023-11-04,16:40:00,-
2023-11-04,16:50:00,2.457
2023-11-04,17:00:00,-
2023-11-04,17:10:00,2.453
2023-11-04,17:20:00,-
2023-11-04,17:30:00,-
2023-11-04,17:40:00,-
2023-11-04,17:50:00,2.456
2023-11-04,18:00:00,2.455
2023-11-04,18:10:00,2.456
2023-11-04,18:20:00,2.455
2023-11-04,18:30:00,2.453
2023-11-04,18:40:00,2.452
2023-11-04,18:50:00,2.453
2023-11-04,19:00:00,2.452
2023-11-04,19:10:00,-
2023-11-04,19:20:00,-
2023-11-04,19:30:00,2.452
2023-11-04,19:40:00,2.451
2023-11-04,19:50:00,2.451
2023-11-04,20:00:00,2.452
2023-11-04,20:10:00,2.451
2023-11-04,20:20:00,2.451
2023-11-04,20:30:00,2.451
2023-11-04,20:40:00,2.45
2023-11-04,20:50:00,2.452
2023-11-04,21:00:00,2.45
2023-11-04,21:10:00,-
2023-11-04,21:20:00,2.448
2023-11-04,21:30:00,2.45
2023-11-04,21:40:00,2.449
2023-11-04,21:50:00,2.449
2023-11-04,22:00:00,2.449
2023-11-04,22:10:00,2.449
2023-11-04,22:20:00,2.449
2023-11-04,22:30:00,2.448
2023-11-04,22:40:00,2.449
2023-11-04,22:50:00,-
2023-11-04,23:00:00,-
2023-11-04,23:10:00,2.446
2023-11-04,23:20:00,-
2023-11-04,23:30:00,2.445
2023-11-04,23:40:00,2.446
2023-11-04,23:50:00,2.446
2023-11-05,00:00:00,2.446
2023-11-05,00:10:00,2.446
2023-11-05,00:20:00,2.446
2023-11-05,00:30:00,-
2023-11-05,00:40:00,2.444
2023-11-05,00:50:00,-
2023-11-05,01:00:00,-
2023-11-05,01:10:00,-
2023-11-05,01:20:00,2.443
2023-11-05,01:30:00,2.445
2023-11-05,01:40:00,2.445
2023-11-05,01:50:00,2.444
2023-11-05,02:00:00,2.444
2023-11-05,02:10:00,2.445
2023-11-05,02:20:00,2.445
2023-11-05,02:30:00,2.444
2023-11-05,02:40:00,2.444
2023-11-05,02:50:00,2.445
2023-11-05,03:00:00,2.444
2023-11-05,03:10:00,-
2023-11-05,03:20:00,-
2023-11-05,03:30:00,-
2023-11-05,03:40:00,2.445
2023-11-05,03:50:00,-
2023-11-05,04:00:00,-
2023-11-05,04:10:00,2.443
2023-11-05,04:20:00,2.444
2023-11-05,04:30:00,2.443
2023-11-05,04:40:00,2.444
2023-11-05,04:50:00,2.443
2023-11-05,05:00:00,2.444
2023-11-05,05:10:00,2.444
2023-11-05,05:20:00,2.444
2023-11-05,05:30:00,2.443
2023-11-05,05:40:00,2.444
2023-11-05,05:50:00,2.444
2023-11-05,06:00:00,-
2023-11-05,06:10:00,2.442
2023-11-05,06:20:00,-
2023-11-05,06:30:00,2.442
2023-11-05,06:40:00,2.443
2023-11-05,06:50:00,2.443
2023-11-05,07:00:00,2.443
2023-11-05,07:10:00,2.442
2023-11-05,07:20:00,2.44
2023-11-05,07:30:00,-
2023-11-05,07:40:00,2.438
2023-11-05,07:50:00,2.437
2023-11-05,08:00:00,2.437
2023-11-05,08:10:00,-
2023-11-05,08:20:00,2.433
2023-11-05,08:30:00,-
2023-11-05,08:40:00,2.431
2023-11-05,08:50:00,2.432
2023-11-05,09:00:00,2.431
2023-11-05,09:10:00,2.431
2023-11-05,09:20:00,2.429
2023-11-05,09:30:00,2.43
2023-11-05,09:40:00,2.428
2023-11-05,09:50:00,2.428
2023-11-05,10:00:00,2.426
2023-11-05,10:10:00,2.428
2023-11-05,10:20:00,2.426
2023-11-05,10:30:00,-
2023-11-05,10:40:00,2.425
2023-11-05,10:50:00,-
2023-11-05,11:00:00,2.424
2023-11-05,11:10:00,2.425
2023-11-05,11:20:00,2.424
2023-11-05,11:30:00,2.424
2023-11-05,11:40:00,2.425
2023-11-05,11:50:00,2.424
2023-11-05,12:00:00,2.424
2023-11-05,12:10:00,2.423
2023-11-05,12:20:00,2.424
2023-11-05,12:30:00,-
2023-11-05,12:40:00,2.421
2023-11-05,12:50:00,-
2023-11-05,13:00:00,2.421
2023-11-05,13:10:00,2.421
2023-11-05,13:20:00,2.422
2023-11-05,13:30:00,2.412
2023-11-05,13:40:00,2.41
2023-11-05,13:50:00,-
2023-11-05,14:00:00,2.41
2023-11-05,14:10:00,2.411
2023-11-05,14:20:00,2.404
2023-11-05,14:30:00,2.405
2023-11-05,14:40:00,2.407
2023-11-05,14:50:00,2.417
2023-11-05,15:00:00,2.411
2023-11-05,15:10:00,2.414
2023-11-05,15:20:00,2.415
2023-11-05,15:30:00,2.412
2023-11-05,15:40:00,2.416
2023-11-05,15:50:00,2.411
2023-11-05,16:00:00,2.41
2023-11-05,16:10:00,2.419
2023-11-05,16:20:00,2.421
2023-11-05,16:30:00,2.419
2023-11-05,16:40:00,2.419
2023-11-05,16:50:00,-
2023-11-05,17:00:00,2.418
2023-11-05,17:10:00,2.418
2023-11-05,17:20:00,2.418
2023-11-05,17:30:00,-
2023-11-05,17:40:00,2.419
2023-11-05,17:50:00,2.418
2023-11-05,18:00:00,2.419
2023-11-05,18:10:00,2.419
2023-11-05,18:20:00,2.419
2023-11-05,18:30:00,2.418
2023-11-05,18:40:00,2.419
2023-11-05,18:50:00,2.419
2023-11-05,19:00:00,2.419
2023-11-05,19:10:00,2.417
2023-11-05,19:20:00,2.419
2023-11-05,19:30:00,2.417
2023-11-05,19:40:00,2.417
2023-11-05,19:50:00,2.417
2023-11-05,20:00:00,2.417
2023-11-05,20:10:00,2.417
2023-11-05,20:20:00,2.417
2023-11-05,20:30:00,2.417
2023-11-05,20:40:00,2.417
2023-11-05,20:50:00,2.417
2023-11-05,21:00:00,2.416
2023-11-05,21:10:00,-
2023-11-05,21:20:00,2.414
2023-11-05,21:30:00,2.415
2023-11-05,21:40:00,2.415
2023-11-05,21:50:00,2.416
2023-11-05,22:00:00,2.416
2023-11-05,22:10:00,-
2023-11-05,22:20:00,2.414
2023-11-05,22:30:00,2.414
2023-11-05,22:40:00,2.415
2023-11-05,22:50:00,2.415
2023-11-05,23:00:00,2.414
2023-11-05,23:10:00,2.415
2023-11-05,23:20:00,2.414
2023-11-05,23:30:00,2.414
2023-11-05,23:40:00,2.415
2023-11-05,23:50:00,2.414
2023-11-06,00:00:00,2.414
2023-11-06,00:10:00,2.414
2023-11-06,00:20:00,2.414
2023-11-06,00:30:00,2.414
2023-11-06,00:40:00,2.415
2023-11-06,00:50:00,2.414
2023-11-06,01:00:00,2.415
2023-11-06,01:10:00,-
2023-11-06,01:20:00,2.412
2023-11-06,01:30:00,2.414
2023-11-06,01:40:00,2.414
2023-11-06,01:50:00,2.414
2023-11-06,02:00:00,2.414
2023-11-06,02:10:00,-
2023-11-06,02:20:00,2.411
2023-11-06,02:30:00,2.414
2023-11-06,02:40:00,2.414
2023-11-06,02:50:00,2.414
2023-11-06,03:00:00,2.412
2023-11-06,03:10:00,-
2023-11-06,03:20:00,-
2023-11-06,03:30:00,2.412
2023-11-06,03:40:00,2.414
2023-11-06,03:50:00,2.414
2023-11-06,04:00:00,2.414
2023-11-06,04:10:00,2.412
2023-11-06,04:20:00,2.412
2023-11-06,04:30:00,2.414
2023-11-06,04:40:00,-
2023-11-06,04:50:00,2.414
2023-11-06,05:00:00,2.412
2023-11-06,05:10:00,2.412
2023-11-06,05:20:00,2.412
2023-11-06,05:30:00,2.414
2023-11-06,05:40:00,2.412
2023-11-06,05:50:00,2.412
2023-11-06,06:00:00,2.412
2023-11-06,06:10:00,2.412
2023-11-06,06:20:00,2.412
2023-11-06,06:30:00,2.412
2023-11-06,06:40:00,2.411
2023-11-06,06:50:00,2.411
2023-11-06,07:00:00,2.411
2023-11-06,07:10:00,2.411
2023-11-06,07:20:00,-
2023-11-06,07:30:00,2.409
2023-11-06,07:40:00,2.408
2023-11-06,07:50:00,2.405
2023-11-06,08:00:00,2.405
2023-11-06,08:10:00,2.404
2023-11-06,08:20:00,2.402
2023-11-06,08:30:00,2.402
2023-11-06,08:40:00,2.402
2023-11-06,08:50:00,-
2023-11-06,09:00:00,2.399
2023-11-06,09:10:00,2.399
2023-11-06,09:20:00,2.398
2023-11-06,09:30:00,2.399
2023-11-06,09:40:00,2.398
2023-11-06,09:50:00,2.399
2023-11-06,10:00:00,2.398
2023-11-06,10:10:00,2.398
2023-11-06,10:20:00,2.397
2023-11-06,10:30:00,2.397
2023-11-06,10:40:00,2.397
2023-11-06,10:50:00,2.397
2023-11-06,11:00:00,-
2023-11-06,11:10:00,2.394
2023-11-06,11:20:00,2.395
2023-11-06,11:30:00,2.395
2023-11-06,11:40:00,2.395
2023-11-06,11:50:00,2.395
2023-11-06,12:00:00,2.392
2023-11-06,12:10:00,2.392
2023-11-06,12:20:00,2.391
2023-11-06,12:30:00,2.391
2023-11-06,12:40:00,-
2023-11-06,12:50:00,2.389
2023-11-06,13:00:00,2.389
2023-11-06,13:10:00,2.389
2023-11-06,13:20:00,2.388
2023-11-06,13:30:00,2.388
2023-11-06,13:40:00,-
2023-11-06,13:50:00,2.385
2023-11-06,14:00:00,2.387
2023-11-06,14:10:00,2.387
2023-11-06,14:20:00,2.387
2023-11-06,14:30:00,2.385
2023-11-06,14:40:00,2.385
2023-11-06,14:50:00,2.383
2023-11-06,15:00:00,-
2023-11-06,15:10:00,2.382
2023-11-06,15:20:00,2.384
2023-11-06,15:30:00,2.395
2023-11-06,15:40:00,-
2023-11-06,15:50:00,2.412
2023-11-06,16:00:00,2.418
2023-11-06,16:10:00,2.414
2023-11-06,16:20:00,2.421
2023-11-06,16:30:00,2.405
2023-11-06,16:40:00,2.425
2023-11-06,16:50:00,2.421
2023-11-06,17:00:00,2.43
2023-11-06,17:10:00,-
2023-11-06,17:20:00,-
2023-11-06,17:30:00,2.431
2023-11-06,17:40:00,2.436
2023-11-06,17:50:00,-
2023-11-06,18:00:00,-
2023-11-06,18:10:00,-
2023-11-06,18:20:00,2.44
2023-11-06,18:30:00,2.444
2023-11-06,18:40:00,-
2023-11-06,18:50:00,-
2023-11-06,19:00:00,-
2023-11-06,19:10:00,2.449
2023-11-06,19:20:00,2.45
2023-11-06,19:30:00,2.452
2023-11-06,19:40:00,2.455
2023-11-06,19:50:00,2.455
2023-11-06,20:00:00,2.458
2023-11-06,20:10:00,-
2023-11-06,20:20:00,-
2023-11-06,20:30:00,-
2023-11-06,20:40:00,2.467
2023-11-06,20:50:00,2.469
2023-11-06,21:00:00,2.47
2023-11-06,21:10:00,2.47
2023-11-06,21:20:00,2.471
2023-11-06,21:30:00,2.471
2023-11-06,21:40:00,2.473
2023-11-06,21:50:00,2.474
2023-11-06,22:00:00,2.476
2023-11-06,22:10:00,2.478
2023-11-06,22:20:00,2.479
2023-11-06,22:30:00,2.482
2023-11-06,22:40:00,2.48
2023-11-06,22:50:00,2.483
2023-11-06,23:00:00,2.484
2023-11-06,23:10:00,2.486
2023-11-06,23:20:00,2.487
2023-11-06,23:30:00,2.487
2023-11-06,23:40:00,2.489
2023-11-06,23:50:00,2.491
2023-11-07,00:00:00,2.492
2023-11-07,00:10:00,2.493
2023-11-07,00:20:00,2.496
2023-11-07,00:30:00,2.497
2023-11-07,00:40:00,2.498
2023-11-07,00:50:00,2.499
2023-11-07,01:00:00,2.499
2023-11-07,01:10:00,2.5
2023-11-07,01:20:00,2.501
2023-11-07,01:30:00,2.503
2023-11-07,01:40:00,2.504
2023-11-07,01:50:00,2.506
2023-11-07,02:00:00,2.506
2023-11-07,02:10:00,2.507
2023-11-07,02:20:00,2.508
2023-11-07,02:30:00,2.51
2023-11-07,02:40:00,2.51
2023-11-07,02:50:00,2.51
2023-11-07,03:00:00,2.511
2023-11-07,03:10:00,2.512
2023-11-07,03:20:00,2.513
2023-11-07,03:30:00,2.515
2023-11-07,03:40:00,2.515
2023-11-07,03:50:00,2.517
2023-11-07,04:00:00,2.517
2023-11-07,04:10:00,2.518
2023-11-07,04:20:00,2.519
2023-11-07,04:30:00,2.519
2023-11-07,04:40:00,2.521
2023-11-07,04:50:00,2.521
2023-11-07,05:00:00,2.523
2023-11-07,05:10:00,2.523
2023-11-07,05:20:00,2.523
2023-11-07,05:30:00,2.524
2023-11-07,05:40:00,2.526
2023-11-07,05:50:00,2.526
2023-11-07,06:00:00,2.527
2023-11-07,06:10:00,2.527
2023-11-07,06:20:00,2.527
2023-11-07,06:30:00,2.528
2023-11-07,06:40:00,2.527
2023-11-07,06:50:00,-
2023-11-07,07:00:00,2.527
2023-11-07,07:10:00,2.53
2023-11-07,07:20:00,2.53
2023-11-07,07:30:00,2.53
2023-11-07,07:40:00,2.53
2023-11-07,07:50:00,2.53
2023-11-07,08:00:00,-
2023-11-07,08:10:00,2.531
2023-11-07,08:20:00,2.531
2023-11-07,08:30:00,2.53
2023-11-07,08:40:00,2.53
2023-11-07,08:50:00,2.531
2023-11-07,09:00:00,2.533
2023-11-07,09:10:00,2.533
2023-11-07,09:20:00,2.533
2023-11-07,09:30:00,2.534
2023-11-07,09:40:00,2.535
2023-11-07,09:50:00,-
2023-11-07,10:00:00,2.535
2023-11-07,10:10:00,2.538
2023-11-07,10:20:00,2.54
2023-11-07,10:30:00,2.541
2023-11-07,10:40:00,2.544
2023-11-07,10:50:00,2.545
2023-11-07,11:00:00,-
2023-11-07,11:10:00,2.544
2023-11-07,11:20:00,2.545
2023-11-07,11:30:00,2.549
2023-11-07,11:40:00,2.552
2023-11-07,11:50:00,2.553
2023-11-07,12:00:00,2.554
2023-11-07,12:10:00,2.554
2023-11-07,12:20:00,2.557
2023-11-07,12:30:00,2.558
2023-11-07,12:40:00,2.559
2023-11-07,12:50:00,2.56
2023-11-07,13:00:00,2.564
2023-11-07,13:10:00,2.564
2023-11-07,13:20:00,2.565